�N����,����,����,����,����,�C��,���x,�~����,�S�V����,�ő�u�ԕ���,,,,,
,,,,,,,,,����,����,����,�N��,,
yyyy/mm/dd,hh:mm:ss,(16),16����,m/s,��,%,mm,KW/�u,(16),16����,m/s,Time,,
2019/4/1,1:00:00,12,��,1.2,-6.7,87.1,0,0,12,��,1.8,58,,
2019/4/1,2:00:00,13,���k��,1.3,-7.2,88.9,0,0,13,���k��,2.7,21,,
2019/4/1,3:00:00,14,�k��,0.9,-7.1,89.7,0,0,14,�k��,2.6,4,,
2019/4/1,4:00:00,13,���k��,1.8,-8.2,88.5,0,0,12,��,2.6,0,,
2019/4/1,5:00:00,14,�k��,1.8,-6.8,89.6,0,0,13,���k��,4.1,44,,
2019/4/1,6:00:00,14,�k��,2.5,-4.3,86.3,0,0.06,14,�k��,3.9,2,,
2019/4/1,7:00:00,2,�k��,1,-0.7,75.1,0,0.22,14,�k��,4.1,14,,
2019/4/1,8:00:00,5,���쓌,2,1.6,47.5,0,0.46,4,��,4,59,,
2019/4/1,9:00:00,1,�k�k��,1.7,3.9,36.6,0,0.64,4,��,4.4,4,,
2019/4/1,10:00:00,2,�k��,2.7,4,35.6,0,0.8,15,�k�k��,7.4,30,,
2019/4/1,11:00:00,5,���쓌,4.2,2.7,52.8,0,0.87,6,�쓌,7.2,45,,
2019/4/1,12:00:00,6,�쓌,4.9,2,61.3,0,0.89,6,�쓌,7.3,55,,
2019/4/1,13:00:00,6,�쓌,4.1,2.6,60.5,0,0.84,6,�쓌,7.3,45,,
2019/4/1,14:00:00,7,��쓌,4.3,2.2,64.7,0,0.65,7,��쓌,7.3,37,,
2019/4/1,15:00:00,7,��쓌,3.6,2,66.1,0,0.55,7,��쓌,7.6,46,,
2019/4/1,16:00:00,7,��쓌,3.5,1.1,68.5,0,0.33,6,�쓌,7.8,17,,
2019/4/1,17:00:00,7,��쓌,1.6,0.8,71.6,0,0.15,6,�쓌,5.6,1,,
2019/4/1,18:00:00,5,���쓌,1.6,-1.6,77.4,0,0.03,6,�쓌,3.4,20,,
2019/4/1,19:00:00,1,�k�k��,2.4,-1.2,84.2,0,0,1,�k�k��,2.8,59,,
2019/4/1,20:00:00,16,�k,2.1,-1.4,86.9,0,0,1,�k�k��,3.3,53,,
2019/4/1,21:00:00,15,�k�k��,1.4,-1.8,86.4,0,0,1,�k�k��,2.9,15,,
2019/4/1,22:00:00,14,�k��,1.7,-2.3,87.4,0,0,14,�k��,2.3,58,,
2019/4/1,23:00:00,15,�k�k��,1.3,-1.6,89.9,0,0,14,�k��,3.1,21,,
2019/4/1,0:00:00,15,�k�k��,1.7,-1.1,89.2,0,0,14,�k��,2.8,17,,
2019/4/2,1:00:00,14,�k��,1.6,-1.6,88.1,0,0,14,�k��,2.7,3,,
2019/4/2,2:00:00,13,���k��,1.4,-3.7,86,0,0,14,�k��,3.1,41,,
2019/4/2,3:00:00,12,��,1.8,-3.9,89.1,0,0,15,�k�k��,3.3,45,,
2019/4/2,4:00:00,14,�k��,1.9,-2.7,92.8,0,0,13,���k��,3,47,,
2019/4/2,5:00:00,13,���k��,0.9,-2.6,94,0,0,13,���k��,2,20,,
2019/4/2,6:00:00,16,�É�,0.2,-2.2,94.1,0,0.01,16,�k,4.1,15,,
2019/4/2,7:00:00,-1.4,#N/A,91.6,0,0.06,,,,,,,,
2019/4/2,8:00:00,2,�k��,2.3,-1.3,88.1,0,0.07,2,�k��,3.4,51,,
2019/4/2,9:00:00,3,���k��,1.7,-1.1,83.8,0,0.1,2,�k��,3.8,24,,
2019/4/2,10:00:00,4,��,2.8,-0.5,84.9,0,0.17,4,��,3.9,55,,
2019/4/2,11:00:00,4,��,3,0.9,75.4,0,0.59,4,��,4.7,45,,
2019/4/2,12:00:00,4,��,3,1.6,64.2,0,0.79,3,���k��,6.4,33,,
2019/4/2,13:00:00,5,���쓌,3.7,1.1,64.9,0,0.71,4,��,5.6,3,,
2019/4/2,14:00:00,5,���쓌,2.3,1,71.8,0,0.38,5,���쓌,4.7,0,,
2019/4/2,15:00:00,5,���쓌,2.2,0.6,73.7,0,0.3,4,��,3.9,6,,
2019/4/2,16:00:00,7,��쓌,1.4,0.3,76.6,0,0.19,8,��,3.4,27,,
2019/4/2,17:00:00,7,��쓌,1.3,-0.5,82.4,0,0.09,6,�쓌,2.4,34,,
2019/4/2,18:00:00,5,���쓌,0.3,-1.4,82,0,0.04,5,���쓌,4.1,58,,
2019/4/2,19:00:00,2,�k��,1.7,-2.5,86.9,0,0,3,���k��,2.6,26,,
2019/4/2,20:00:00,3,���k��,1.5,-1.3,92.4,0,0,3,���k��,2.6,36,,
2019/4/2,21:00:00,3,���k��,1.3,-1,91.6,0,0,3,���k��,2.8,15,,
2019/4/2,22:00:00,16,�É�,0.2,-1.4,91.8,0,0,3,���k��,2.4,14,,
2019/4/2,23:00:00,14,�k��,0.7,-1.4,92.3,0,0,13,���k��,1.2,9,,
2019/4/2,0:00:00,14,�k��,1.5,-1.2,92.8,0.5,0,14,�k��,2.7,50,,
2019/4/3,1:00:00,14,�k��,0.9,-1.5,93.1,0,0,14,�k��,2.3,7,,
2019/4/3,2:00:00,14,�k��,0.8,-1.5,93.5,0,0,14,�k��,2.1,57,,
2019/4/3,3:00:00,14,�k��,0.9,-2.1,92.2,0,0,14,�k��,2.8,44,,
2019/4/3,4:00:00,12,��,2,-4.4,91,0,0,13,���k��,2.4,56,,
2019/4/3,5:00:00,-3,#N/A,91.9,0,0,,,,,,,,
2019/4/3,6:00:00,13,���k��,1,-4.6,92.6,0,0.02,13,���k��,2.8,1,,
2019/4/3,7:00:00,15,�k�k��,1.2,-1.9,90.4,0,0.1,15,�k�k��,2.7,5,,
2019/4/3,8:00:00,15,�k�k��,1.8,-0.9,72.8,0,0.24,13,���k��,7.2,44,,
2019/4/3,9:00:00,14,�k��,1.3,0.9,63.1,0,0.47,14,�k��,4.1,6,,
2019/4/3,10:00:00,14,�k��,3.1,2.8,42.5,0,0.8,14,�k��,6.1,51,,
2019/4/3,11:00:00,15,�k�k��,4.6,4.9,36.7,0,0.9,14,�k��,10,48,,
2019/4/3,12:00:00,15,�k�k��,5.3,4.4,32.2,0,0.97,15,�k�k��,10.9,45,,
2019/4/3,13:00:00,16,�k,4.6,4.9,30.8,0,0.94,15,�k�k��,9.2,45,,
2019/4/3,14:00:00,16,�k,4.9,4.6,36.9,0,0.47,14,�k��,10.1,17,,
2019/4/3,15:00:00,15,�k�k��,5,6.6,31.6,0,0.68,16,�k,10.5,37,,
2019/4/3,16:00:00,5,���쓌,1.7,3.3,48.3,0,0.5,15,�k�k��,11.7,10,,
2019/4/3,17:00:00,16,�k,3,4.4,36.9,0,0.26,1,�k�k��,7,50,,
2019/4/3,18:00:00,9,��쐼,1.5,0.6,47,0,0.06,14,�k��,5.1,31,,
2019/4/3,19:00:00,12,��,1,-3.3,62.1,0,0,10,�쐼,2.7,1,,
2019/4/3,20:00:00,12,��,1.5,-1.7,67,0,0,13,���k��,2.6,16,,
2019/4/3,21:00:00,14,�k��,1.8,-2.6,70.9,0,0,13,���k��,2.5,56,,
2019/4/3,22:00:00,12,��,2.6,-4.3,70.2,0,0,13,���k��,3.2,59,,
2019/4/3,23:00:00,13,���k��,2.1,-3.4,72.4,0,0,13,���k��,3.4,46,,
2019/4/3,0:00:00,13,���k��,1.9,-7.7,74,0,0,13,���k��,3,40,,
2019/4/4,1:00:00,14,�k��,2.3,-3.6,83,0,0,14,�k��,3.5,31,,
2019/4/4,2:00:00,13,���k��,0.7,-6.3,76.4,0,0,12,��,4.4,55,,
2019/4/4,3:00:00,11,���쐼,1.4,-8.8,80.7,0,0,12,��,2.6,41,,
2019/4/4,4:00:00,14,�k��,2.6,-8.3,85.1,0,0,12,��,3.6,39,,
2019/4/4,5:00:00,13,���k��,1.8,-8,84.1,0,0,12,��,2.9,41,,
2019/4/4,6:00:00,13,���k��,2.3,-4.5,88.7,0,0.07,12,��,3.9,29,,
2019/4/4,7:00:00,13,���k��,1.9,-0.9,60.2,0,0.29,13,���k��,3.6,6,,
2019/4/4,8:00:00,13,���k��,1.1,2.5,36.3,0,0.5,14,�k��,3.1,42,,
2019/4/4,9:00:00,8,��,0.8,5.6,26.5,0,0.67,9,��쐼,2.7,56,,
2019/4/4,10:00:00,8,��,3.5,5.1,30.6,0,0.82,7,��쓌,5.7,47,,
2019/4/4,11:00:00,8,��,4.2,5.3,31.7,0,0.92,8,��,6.5,25,,
2019/4/4,12:00:00,8,��,5.1,5.9,32.6,0,0.99,7,��쓌,7,55,,
2019/4/4,13:00:00,8,��,4.6,6.6,23.1,0,0.87,7,��쓌,7.5,16,,
2019/4/4,14:00:00,8,��,2.9,8.3,31.6,0,0.71,8,��,7.8,3,,
2019/4/4,15:00:00,7,��쓌,3.1,6.3,38.8,0,0.47,7,��쓌,5.5,20,,
2019/4/4,16:00:00,6,�쓌,2.3,8.2,33.9,0,0.32,6,�쓌,4.7,35,,
2019/4/4,17:00:00,12,��,5.2,8.1,29.4,0,0.25,12,��,8.1,58,,
2019/4/4,18:00:00,11,���쐼,4.7,5.3,42.1,0,0.05,11,���쐼,8,24,,
2019/4/4,19:00:00,12,��,1.4,1,46.5,0,0,11,���쐼,5.9,2,,
2019/4/4,20:00:00,10,�쐼,1.2,-1.1,56.4,0,0,12,��,3,12,,
2019/4/4,21:00:00,11,���쐼,1.4,-1.3,63.3,0,0,10,�쐼,2.5,35,,
2019/4/4,22:00:00,11,���쐼,1.9,0.4,74.7,0,0,9,��쐼,4.6,49,,
2019/4/4,23:00:00,14,�k��,1.1,-1.1,69.4,0,0,15,�k�k��,2.5,18,,
2019/4/4,0:00:00,6,�쓌,0.9,-3.6,74.5,0,0,13,���k��,2.8,6,,
2019/4/5,1:00:00,12,��,2.9,-5.4,80.5,0,0,13,���k��,3.5,59,,
2019/4/5,2:00:00,15,�k�k��,1,-4.9,85.3,0,0,12,��,3.5,0,,
2019/4/5,3:00:00,13,���k��,1.9,-4.1,86.1,0,0,14,�k��,3.2,38,,
2019/4/5,4:00:00,14,�k��,2.1,-6,85.5,0,0,13,���k��,3.9,18,,
2019/4/5,5:00:00,12,��,2.5,-6.3,87.3,0,0.01,12,��,3.4,51,,
2019/4/5,6:00:00,13,���k��,0.9,-2,91.6,0,0.08,15,�k�k��,3,30,,
2019/4/5,7:00:00,12,��,0.6,1.2,79.8,0,0.17,14,�k��,3.1,31,,
2019/4/5,8:00:00,3,���k��,0.8,3.4,61.8,0,0.26,7,��쓌,17.2,59,,
2019/4/5,9:00:00,5,���쓌,0.9,5.8,46.8,0,0.46,10,�쐼,17.6,25,,
2019/4/5,10:00:00,8,��,3,3.9,50.7,0,0.36,8,��,4.9,53,,
2019/4/5,11:00:00,8,��,1.6,1.4,71.7,0,0.18,8,��,5,38,,
2019/4/5,12:00:00,2,�k��,1.9,0.7,84.9,0.5,0.13,13,���k��,8.2,23,,
2019/4/5,13:00:00,2,�k��,1.8,0.5,92,1,0.1,3,���k��,3.7,34,,
2019/4/5,14:00:00,2,�k��,1,0.4,93.8,1,0.05,2,�k��,2.8,8,,
2019/4/5,15:00:00,3,���k��,1.3,0.5,93.5,1,0.1,3,���k��,2.5,8,,
2019/4/5,16:00:00,16,�k,1.4,0.6,92.4,1,0.1,1,�k�k��,3.2,39,,
2019/4/5,17:00:00,15,�k�k��,1,0.9,91.8,0,0.06,15,�k�k��,2.4,19,,
2019/4/5,18:00:00,4,��,0.3,0.5,91.3,0,0.02,15,�k�k��,2.8,23,,
2019/4/5,19:00:00,11,���쐼,0.8,0.3,91.6,0,0,10,�쐼,1.5,49,,
2019/4/5,20:00:00,10,�쐼,0.9,0.2,92.2,0,0,12,��,1.7,11,,
2019/4/5,21:00:00,9,��쐼,1.4,-0.8,92.7,0,0,9,��쐼,2.4,59,,
2019/4/5,22:00:00,8,��,1.1,-0.3,94.3,0,0,9,��쐼,3.1,6,,
2019/4/5,23:00:00,2,�k��,1.7,-2.1,95,0,0,2,�k��,3.8,18,,
2019/4/5,0:00:00,10,�쐼,1.5,-2.6,95.4,0,0,2,�k��,2.8,6,,
2019/4/6,1:00:00,11,���쐼,4,1.2,95.2,0,0,10,�쐼,9.3,31,,
2019/4/6,2:00:00,12,��,3.2,2.6,76.5,0,0,12,��,6.8,19,,
2019/4/6,3:00:00,10,�쐼,0.8,-1.4,79.1,0,0,16,�k,4.5,5,,
2019/4/6,4:00:00,15,�k�k��,1.2,-3.7,85.9,0,0,15,�k�k��,2.8,50,,
2019/4/6,5:00:00,2,�k��,0.7,-5,90.6,0,0,12,��,3,14,,
2019/4/6,6:00:00,15,�k�k��,3.3,1.4,95.9,0,0.07,4,��,7.3,25,,
2019/4/6,7:00:00,15,�k�k��,2,3.6,63.2,0,0.26,13,���k��,6.5,27,,
2019/4/6,8:00:00,11,���쐼,0.4,5.4,48.4,0,0.45,14,�k��,4.8,5,,
2019/4/6,9:00:00,7,��쓌,2.5,5.2,49.4,0,0.47,11,���쐼,5.6,39,,
2019/4/6,10:00:00,5,���쓌,3.3,7.3,51.1,0,0.76,6,�쓌,5.1,52,,
2019/4/6,11:00:00,14,�k��,2.3,8.8,35.3,0,0.79,1,�k�k��,7.3,16,,
2019/4/6,12:00:00,14,�k��,4.9,8.2,43.7,0,0.33,13,���k��,9.8,46,,
2019/4/6,13:00:00,13,���k��,6.4,9,37.9,0,0.72,13,���k��,11.6,28,,
2019/4/6,14:00:00,14,�k��,5,8.8,35.6,0,0.37,14,�k��,13.1,59,,
2019/4/6,15:00:00,12,��,7.6,8.9,43.2,0,0.55,13,���k��,12,0,,
2019/4/6,16:00:00,13,���k��,6.1,7.6,40.3,0,0.48,11,���쐼,11.5,0,,
2019/4/6,17:00:00,12,��,3.8,6.8,48.1,0,0.13,14,�k��,9.6,28,,
2019/4/6,18:00:00,11,���쐼,4.4,4.2,63.5,0,0.04,11,���쐼,7.4,17,,
2019/4/6,19:00:00,12,��,3.5,4.4,60.9,0,0,12,��,8.9,9,,
2019/4/6,20:00:00,15,�k�k��,1.3,3.1,63.7,0,0,11,���쐼,5.2,13,,
2019/4/6,21:00:00,1.4,�k�k��,66.9,0,0,,,,,,,,
2019/4/6,22:00:00,12,��,0.3,-2.2,69.5,0,0,11,���쐼,3,52,,
2019/4/6,23:00:00,11,���쐼,4.2,3.7,62.8,0,0,12,��,6.4,39,,
2019/4/6,0:00:00,12,��,5.4,3.3,63.6,0,0,12,��,8.3,51,,
2019/4/7,1:00:00,14,�k��,1.6,2,71.6,0,0,13,���k��,8.6,2,,
2019/4/7,2:00:00,14,�k��,1.9,0.7,73.5,0,0,14,�k��,2.8,56,,
2019/4/7,3:00:00,13,���k��,1.9,-2.8,79.3,0,0,13,���k��,3,6,,
2019/4/7,4:00:00,12,��,1.7,-4,88.5,0,0,14,�k��,3.6,25,,
2019/4/7,5:00:00,13,���k��,1.8,-4.7,88.9,0,0.01,13,���k��,2.4,59,,
2019/4/7,6:00:00,13,���k��,1.3,-1.8,94.3,0,0.08,11,���쐼,3.4,53,,
2019/4/7,7:00:00,13,���k��,1.4,3,79.8,0,0.28,13,���k��,3.5,8,,
2019/4/7,8:00:00,4,��,1.7,7,47.5,0,0.49,1,�k�k��,3.4,30,,
2019/4/7,9:00:00,5,���쓌,2.5,7.8,37.9,0,0.68,5,���쓌,4.4,50,,
2019/4/7,10:00:00,7,��쓌,3.1,8.2,42.3,0,0.83,5,���쓌,5.1,4,,
2019/4/7,11:00:00,12,��,3.3,10.7,32.4,0,0.62,12,��,6.1,49,,
2019/4/7,12:00:00,12,��,5.1,10.9,38.2,0,0.45,11,���쐼,10.3,59,,
2019/4/7,13:00:00,12,��,6.9,10.3,39.9,0,0.7,12,��,13.1,10,,
2019/4/7,14:00:00,15,�k�k��,5.6,10.1,42.4,0,0.68,13,���k��,10.8,1,,
2019/4/7,15:00:00,12,��,3.9,8.6,48.7,0,0.29,15,�k�k��,9.8,1,,
2019/4/7,16:00:00,11,���쐼,4.6,6.9,54.1,0,0.28,11,���쐼,7.6,16,,
2019/4/7,17:00:00,13,���k��,1,7.8,54.2,0,0.23,11,���쐼,6.5,12,,
2019/4/7,18:00:00,2,�k��,1.6,3.7,58.1,0,0.08,4,��,3.9,33,,
2019/4/7,19:00:00,1,�k�k��,2.3,2.2,72.8,0,0,15,�k�k��,5.7,27,,
2019/4/7,20:00:00,2,�k��,0.4,0.5,81.5,0,0,1,�k�k��,3.3,5,,
2019/4/7,21:00:00,16,�É�,0.1,-2.3,83.5,0,0,15,�k�k��,2.4,28,,
2019/4/7,22:00:00,10,�쐼,0.8,-2.3,87.1,0,0,12,��,2.5,40,,
2019/4/7,23:00:00,13,���k��,1.3,-4.4,91,0,0,16,�k,2.6,45,,
2019/4/7,0:00:00,13,���k��,1.9,-5.2,92.7,0,0,13,���k��,2.8,45,,
2019/4/8,1:00:00,14,�k��,1.8,-4.4,94.9,0,0,13,���k��,3.4,22,,
2019/4/8,2:00:00,14,�k��,2.8,-3.8,95.7,0,0,14,�k��,4.4,42,,
2019/4/8,3:00:00,15,�k�k��,2.5,-0.3,95.9,0,0,16,�k,4.9,58,,
2019/4/8,4:00:00,13,���k��,2.7,-3.1,80.8,0,0,14,�k��,4.5,20,,
2019/4/8,5:00:00,11,���쐼,1.5,-3.4,79,0,0.01,14,�k��,4.5,13,,
2019/4/8,6:00:00,13,���k��,1.7,-1.2,83.8,0,0.1,13,���k��,3.8,27,,
2019/4/8,7:00:00,14,�k��,2.9,3.7,60.4,0,0.31,14,�k��,4.9,59,,
2019/4/8,8:00:00,15,�k�k��,3.3,6,48.3,0,0.51,14,�k��,6.8,38,,
2019/4/8,9:00:00,4,��,1.5,7,35.4,0,0.69,14,�k��,6.2,3,,
2019/4/8,10:00:00,6,�쓌,4.1,7,44.2,0,0.81,5,���쓌,6.1,50,,
2019/4/8,11:00:00,7,��쓌,4.2,6.1,47.8,0,0.94,8,��,6.9,34,,
2019/4/8,12:00:00,8,��,5.7,6.3,48.4,0,0.96,8,��,8.8,53,,
2019/4/8,13:00:00,8,��,5.1,7.1,47.6,0,0.94,8,��,9.5,7,,
2019/4/8,14:00:00,8,��,4.7,6.5,45.7,0,0.83,8,��,8.4,44,,
2019/4/8,15:00:00,8,��,5.7,5.4,47.3,0,0.67,8,��,10.1,25,,
2019/4/8,16:00:00,2,�k��,3.3,4.1,59,0,0.19,8,��,7.4,3,,
2019/4/8,17:00:00,2,�k��,4.4,1.1,82.6,0,0.04,2,�k��,7.2,48,,
2019/4/8,18:00:00,14,�k��,1.1,0.6,89.7,0,0.03,2,�k��,4.7,1,,
2019/4/8,19:00:00,13,���k��,2.3,0.9,91.8,0,0,13,���k��,3.1,51,,
2019/4/8,20:00:00,13,���k��,2.5,1.5,92.4,0,0,13,���k��,3.6,34,,
2019/4/8,21:00:00,14,�k��,1.8,1.5,91.8,0,0,13,���k��,3.3,2,,
2019/4/8,22:00:00,13,���k��,2.4,1.4,91.1,0,0,13,���k��,3.3,35,,
2019/4/8,23:00:00,14,�k��,1.4,1.2,90.6,0,0,14,�k��,4.1,16,,
2019/4/8,0:00:00,14,�k��,2.2,-0.9,88.7,0,0,14,�k��,3.1,50,,
2019/4/9,1:00:00,14,�k��,2.3,-2.1,90,0,0,14,�k��,4.1,43,,
2019/4/9,2:00:00,14,�k��,1.6,-2.5,91.4,0,0,14,�k��,2.6,55,,
2019/4/9,3:00:00,16,�É�,0.2,-3.2,94.3,0,0,14,�k��,3.5,34,,
2019/4/9,4:00:00,13,���k��,1.6,-3.4,94.6,0,0,13,���k��,3.7,40,,
2019/4/9,5:00:00,13,���k��,1.4,-2.4,94,0,0,14,�k��,2.6,9,,
2019/4/9,6:00:00,8,��,0.9,-1.4,95,0,0.06,11,���쐼,1.7,59,,
2019/4/9,7:00:00,10,�쐼,0.3,2.2,93.4,0,0.21,9,��쐼,5.7,50,,
2019/4/9,8:00:00,14,�k��,2.5,4.7,57.6,0,0.38,12,��,4.9,40,,
2019/4/9,9:00:00,15,�k�k��,3.2,7,53.5,0,0.56,15,�k�k��,9.1,48,,
2019/4/9,10:00:00,15,�k�k��,5.8,8.7,42.1,0,0.73,16,�k,11.7,47,,
2019/4/9,11:00:00,14,�k��,6.5,7.6,41.6,0,0.62,15,�k�k��,11.5,17,,
2019/4/9,12:00:00,15,�k�k��,4.9,8.9,37.7,0,0.71,14,�k��,11,19,,
2019/4/9,13:00:00,5,���쓌,3.9,5.6,50.3,0,0.58,16,�k,11.1,41,,
2019/4/9,14:00:00,5,���쓌,4.9,5.3,67.9,0,0.48,5,���쓌,7.6,38,,
2019/4/9,15:00:00,7,��쓌,2.5,5.6,68.7,0,0.4,5,���쓌,7.7,0,,
2019/4/9,16:00:00,7,��쓌,3.3,6,64.8,0,0.57,7,��쓌,7,45,,
2019/4/9,17:00:00,10,�쐼,2.5,4.6,67.4,0,0.27,8,��,8,5,,
2019/4/9,18:00:00,9,��쐼,1.6,2.1,69.7,0,0.07,9,��쐼,7.4,14,,
2019/4/9,19:00:00,5,���쓌,1.8,-0.8,76.8,0,0,9,��쐼,3.2,3,,
2019/4/9,20:00:00,13,���k��,1.2,-2.4,84.9,0,0,6,�쓌,3.8,9,,
2019/4/9,21:00:00,15,�k�k��,2.7,2.5,72.1,0,0,15,�k�k��,4.7,55,,
2019/4/9,22:00:00,15,�k�k��,3.5,3.3,59,0,0,15,�k�k��,6.3,57,,
2019/4/9,23:00:00,14,�k��,2.3,2.4,60.3,0,0,15,�k�k��,6.1,14,,
2019/4/9,0:00:00,14,�k��,2,-1.4,62.2,0,0,14,�k��,3.4,17,,
2019/4/10,1:00:00,12,��,1.7,-4.4,72.6,0,0,12,��,2.5,58,,
2019/4/10,2:00:00,13,���k��,2.2,-5.1,79.4,0,0,13,���k��,2.8,51,,
2019/4/10,3:00:00,13,���k��,1.9,-4.3,83.1,0,0,13,���k��,3,21,,
2019/4/10,4:00:00,13,���k��,2.8,-3.7,82.6,0,0,14,�k��,3.8,32,,
2019/4/10,5:00:00,13,���k��,2.9,-5.2,82.2,0,0.01,13,���k��,3.9,59,,
2019/4/10,6:00:00,14,�k��,3.3,1.1,77.7,0,0.11,14,�k��,4.8,58,,
2019/4/10,7:00:00,9,��쐼,1.1,4.4,49.5,0,0.3,3,���k��,7.7,49,,
2019/4/10,8:00:00,10,�쐼,1.4,7.2,36.7,0,0.51,12,��,2.9,29,,
2019/4/10,9:00:00,8,��,3.6,8.8,28.2,0,0.67,8,��,6.1,49,,
2019/4/10,10:00:00,6,�쓌,3.8,5.7,44,0,0.77,7,��쓌,6.8,40,,
2019/4/10,11:00:00,3,���k��,2.8,6.9,45.1,0,0.68,4,��,6.8,23,,
2019/4/10,12:00:00,4,��,3.5,7.6,48.8,0,0.84,5,���쓌,6.1,24,,
2019/4/10,13:00:00,3,���k��,5.5,6.8,52.2,0,0.78,3,���k��,7.7,48,,
2019/4/10,14:00:00,3,���k��,6.6,4.9,61.6,0,0.84,3,���k��,10,24,,
2019/4/10,15:00:00,3,���k��,5.5,3.7,70.5,0,0.49,3,���k��,8.6,20,,
2019/4/10,16:00:00,3,���k��,5.4,4,75.1,0,0.21,3,���k��,7.3,33,,
2019/4/10,17:00:00,3,���k��,3.7,2.6,80.3,0,0.13,2,�k��,6.1,11,,
2019/4/10,18:00:00,2,�k��,4.3,1.9,85.1,0,0.03,2,�k��,7.5,19,,
2019/4/10,19:00:00,1,�k�k��,2.5,1,86.9,0,0,2,�k��,6.5,1,,
2019/4/10,20:00:00,2,�k��,2.8,0.8,88.1,0,0,1,�k�k��,4.5,46,,
2019/4/10,21:00:00,1,�k�k��,2.2,1,89.9,0,0,1,�k�k��,4.5,15,,
2019/4/10,22:00:00,15,�k�k��,1.4,1.4,89.9,0,0,1,�k�k��,3.7,4,,
2019/4/10,23:00:00,16,�k,2.3,1.4,87.3,0,0,16,�k,3.7,58,,
2019/4/10,0:00:00,14,�k��,1.9,1.4,86.4,0,0,16,�k,3.6,10,,
2019/4/11,1:00:00,16,�k,1.7,1.6,85.9,0,0,16,�k,3.7,44,,
2019/4/11,2:00:00,1,�k�k��,1.4,-0.6,85,0,0,2,�k��,2.3,41,,
2019/4/11,3:00:00,13,���k��,0.8,-3.3,83.9,0,0,16,�k,2.6,21,,
2019/4/11,4:00:00,14,�k��,1.9,-2.3,90.7,0,0,14,�k��,3.3,58,,
2019/4/11,5:00:00,13,���k��,2.4,-3.5,92.9,0,0.01,14,�k��,3.6,2,,
2019/4/11,6:00:00,13,���k��,1,-2.6,94.2,0,0.06,10,�쐼,3.6,44,,
2019/4/11,7:00:00,14,�k��,1,2.3,85,0,0.26,13,���k��,2.2,34,,
2019/4/11,8:00:00,3,���k��,2.7,5.6,54.2,0,0.47,3,���k��,4.4,51,,
2019/4/11,9:00:00,5,���쓌,3.4,5.9,55.9,0,0.68,4,��,5.4,59,,
2019/4/11,10:00:00,4,��,4.8,6.8,60.1,0,0.73,4,��,6.4,53,,
2019/4/11,11:00:00,4,��,4.4,5.6,64.5,0,0.56,5,���쓌,6.4,12,,
2019/4/11,12:00:00,4,��,4.5,6.6,63,0,0.64,4,��,6.2,34,,
2019/4/11,13:00:00,4,��,4.1,7.6,63,0,0.85,4,��,6.1,51,,
2019/4/11,14:00:00,6,�쓌,2.7,6.7,64.6,0,0.74,5,���쓌,5.9,2,,
2019/4/11,15:00:00,7,��쓌,2.3,4.6,67.4,0,0.48,7,��쓌,4.5,10,,
2019/4/11,16:00:00,7,��쓌,2.3,4.5,69.1,0,0.24,7,��쓌,3.2,58,,
2019/4/11,17:00:00,8,��,1.8,3.3,78.5,0,0.11,7,��쓌,4,22,,
2019/4/11,18:00:00,9,��쐼,1.4,2.7,79.8,0,0.03,7,��쓌,2.3,2,,
2019/4/11,19:00:00,10,�쐼,0.6,2.2,82.7,0,0,10,�쐼,3.2,12,,
2019/4/11,20:00:00,9,��쐼,0.9,2.5,85.2,0,0,6,�쓌,2,38,,
2019/4/11,21:00:00,2,�k��,1.1,1.8,86.7,0,0,5,���쓌,2.8,2,,
2019/4/11,22:00:00,12,��,0.4,-0.2,86,0,0,16,�k,1.9,6,,
2019/4/11,23:00:00,14,�k��,1.9,0.3,89.1,0,0,15,�k�k��,3,59,,
2019/4/11,0:00:00,14,�k��,1.7,0.7,92.8,0,0,14,�k��,4,30,,
2019/4/12,1:00:00,13,���k��,2.1,-2.4,92,0,0,13,���k��,3.1,49,,
2019/4/12,2:00:00,14,�k��,3.4,0.4,94.6,0,0,14,�k��,5.2,42,,
2019/4/12,3:00:00,14,�k��,3.6,-0.1,94.5,0,0,14,�k��,5.3,1,,
2019/4/12,4:00:00,13,���k��,3,-0.2,93.9,0,0,14,�k��,5.1,38,,
2019/4/12,5:00:00,13,���k��,3.6,-0.3,91.2,0,0.01,14,�k��,5.3,29,,
2019/4/12,6:00:00,14,�k��,1.7,0.4,87.3,0,0.04,13,���k��,5.5,0,,
2019/4/12,7:00:00,13,���k��,1.3,4.1,68.2,0,0.32,14,�k��,3.9,8,,
2019/4/12,8:00:00,14,�k��,1.9,7.1,47.8,0,0.52,14,�k��,3.4,57,,
2019/4/12,9:00:00,15,�k�k��,3.1,9.8,32.5,0,0.7,16,�k,6.7,53,,
2019/4/12,10:00:00,6,�쓌,3.8,9.2,42.2,0,0.84,7,��쓌,6.4,53,,
2019/4/12,11:00:00,8,��,4.7,7.2,54.8,0,0.99,7,��쓌,7.4,31,,
2019/4/12,12:00:00,8,��,4.6,7,48.7,0,0.93,7,��쓌,8.5,17,,
2019/4/12,13:00:00,8,��,4.5,7.3,48.3,0,0.74,8,��,7.8,24,,
2019/4/12,14:00:00,8,��,5.2,9.2,39,0,0.65,8,��,8.5,51,,
2019/4/12,15:00:00,7,��쓌,2.6,7.7,48,0,0.42,9,��쐼,8.3,11,,
2019/4/12,16:00:00,9,��쐼,3.7,7.5,59,0,0.09,7,��쓌,7,57,,
2019/4/12,17:00:00,11,���쐼,6.8,7,57,0,0.2,13,���k��,17.4,52,,
2019/4/12,18:00:00,16,�k,1.8,5.4,63.1,0,0.04,10,�쐼,10.6,7,,
2019/4/12,19:00:00,2,�k��,3,1.9,74.8,0,0,2,�k��,7.4,14,,
2019/4/12,20:00:00,16,�k,0.8,-0.2,76.3,0,0,1,�k�k��,3.5,6,,
2019/4/12,21:00:00,13,���k��,1.1,-3.2,79.2,0,0,16,�k,2.1,12,,
2019/4/12,22:00:00,13,���k��,1.3,-3.6,84.9,0,0,13,���k��,2.6,34,,
2019/4/12,23:00:00,12,��,2.6,-3.6,89.3,0,0,13,���k��,3.5,58,,
2019/4/12,0:00:00,14,�k��,1.8,-3.3,91.8,0,0,13,���k��,3.1,18,,
2019/4/13,1:00:00,13,���k��,2,-4.4,91.1,0,0,13,���k��,3.4,43,,
2019/4/13,2:00:00,13,���k��,1.7,-3.7,92.1,0,0,14,�k��,2.5,41,,
2019/4/13,3:00:00,13,���k��,2.2,-3.9,92.5,0,0,13,���k��,3.2,59,,
2019/4/13,4:00:00,13,���k��,2.1,-4.3,92.6,0,0,13,���k��,3.4,46,,
2019/4/13,5:00:00,14,�k��,1.6,-5.3,92.1,0,0.01,11,���쐼,8.9,10,,
2019/4/13,6:00:00,13,���k��,2.4,-1.4,94.3,0,0.11,14,�k��,4,51,,
2019/4/13,7:00:00,13,���k��,1.6,3.4,74.9,0,0.32,13,���k��,2.7,49,,
2019/4/13,8:00:00,8.1,��,45.5,0,0.54,,,,,,,,
2019/4/13,9:00:00,7,��쓌,3,8.6,46.1,0,0.71,7,��쓌,4.2,55,,
2019/4/13,10:00:00,7,��쓌,3.6,10,43.3,0,0.86,7,��쓌,5.4,53,,
2019/4/13,11:00:00,8,��,3.8,9.4,49.1,0,0.95,7,��쓌,6.3,51,,
2019/4/13,12:00:00,7,��쓌,3.8,10,43.9,0,0.99,7,��쓌,6.4,1,,
2019/4/13,13:00:00,8,��,4.4,10.7,38.2,0,0.95,8,��,7,59,,
2019/4/13,14:00:00,8,��,4.4,11.2,35.6,0,0.85,8,��,7.8,58,,
2019/4/13,15:00:00,7,��쓌,4.2,11.8,27.9,0,0.69,8,��,7,48,,
2019/4/13,16:00:00,7,��쓌,3,10,47.2,0,0.51,6,�쓌,7.5,9,,
2019/4/13,17:00:00,9,��쐼,1.9,12.9,36,0,0.29,9,��쐼,4.9,12,,
2019/4/13,18:00:00,10,�쐼,2.6,11.2,30.3,0,0.09,8,��,4.5,14,,
2019/4/13,19:00:00,9,��쐼,1.1,5,37.2,0,0,10,�쐼,3.6,0,,
2019/4/13,20:00:00,12,��,1.1,3.8,47.9,0,0,10,�쐼,1.8,35,,
2019/4/13,21:00:00,11,���쐼,1.4,4.6,55.7,0,0,12,��,2.1,54,,
2019/4/13,22:00:00,14,�k��,1.9,1.1,53.6,0,0,14,�k��,2.6,58,,
2019/4/13,23:00:00,13,���k��,1.5,-2.3,65.6,0,0,14,�k��,2.5,0,,
2019/4/13,0:00:00,12,��,1,-2,70.3,0,0,13,���k��,2.3,22,,
2019/4/14,1:00:00,13,���k��,1,-3.9,75,0,0,13,���k��,2.2,43,,
2019/4/14,2:00:00,13,���k��,0.6,-3.4,78,0,0,12,��,2.9,26,,
2019/4/14,3:00:00,13,���k��,2,-3.8,80.2,0,0,13,���k��,3.3,54,,
2019/4/14,4:00:00,14,�k��,0.7,-2.6,83.4,0,0,13,���k��,5.7,28,,
2019/4/14,5:00:00,12,��,1.6,-1.7,83.2,0,0.01,14,�k��,2.7,37,,
2019/4/14,6:00:00,12,��,0.9,0.8,85.6,0,0.07,13,���k��,3.8,22,,
2019/4/14,7:00:00,12,��,1.4,2.1,71.9,0,0.12,13,���k��,1.9,55,,
2019/4/14,8:00:00,16,�É�,0,3.7,70.2,0,0.12,1,�k�k��,3.4,23,,
2019/4/14,9:00:00,9,��쐼,0.8,8,55.5,0,0.25,8,��,8.2,40,,
2019/4/14,10:00:00,9,��쐼,3.2,11.9,32.5,0,0.57,8,��,5,33,,
2019/4/14,11:00:00,8,��,4.9,13.9,30.4,0,0.76,8,��,7.8,54,,
2019/4/14,12:00:00,8,��,4.3,14.2,30,0,0.97,9,��쐼,7.6,9,,
2019/4/14,13:00:00,7,��쓌,5.7,13,34.5,0,0.95,8,��,9.1,55,,
2019/4/14,14:00:00,8,��,6.9,9.9,53.7,0,0.84,7,��쓌,11.1,51,,
2019/4/14,15:00:00,8,��,5.7,9.3,61.9,0,0.68,7,��쓌,10.7,51,,
2019/4/14,16:00:00,8,��,4.4,9.1,61.5,0,0.5,8,��,10.2,15,,
2019/4/14,17:00:00,9,��쐼,3,8.9,55.6,0,0.23,8,��,9.3,6,,
2019/4/14,18:00:00,9,��쐼,4.3,6.3,66.5,0,0.06,9,��쐼,8.1,43,,
2019/4/14,19:00:00,9,��쐼,2.1,4.5,76.1,0,0,9,��쐼,6.5,6,,
2019/4/14,20:00:00,7,��쓌,0.4,0.9,76.7,0,0,4,��,7.2,56,,
2019/4/14,21:00:00,9,��쐼,2.7,5.5,79.1,0,0,9,��쐼,5.8,56,,
2019/4/14,22:00:00,10,�쐼,2,4.5,81.3,0,0,10,�쐼,5.5,2,,
2019/4/14,23:00:00,2,�k��,0.6,3,85,0,0,12,��,2.8,1,,
2019/4/14,0:00:00,1,�k�k��,1.6,4,88.7,0,0,2,�k��,2.6,36,,
2019/4/15,1:00:00,2,�k��,3.4,4.6,92.5,0,0,3,���k��,4.9,59,,
2019/4/15,2:00:00,2,�k��,2.4,4.3,92.7,0,0,2,�k��,5.3,10,,
2019/4/15,3:00:00,2,�k��,2.5,4.4,93.3,0,0,2,�k��,4.3,48,,
2019/4/15,4:00:00,1,�k�k��,2.4,4.2,93.4,0,0,2,�k��,4.4,30,,
2019/4/15,5:00:00,15,�k�k��,1.3,4.5,94.3,3,0,16,�k,7.4,39,,
2019/4/15,6:00:00,14,�k��,2.6,3.9,94.2,4,0.01,14,�k��,4.3,55,,
2019/4/15,7:00:00,16,�k,0.8,4.3,94.4,5,0.02,14,�k��,3.1,30,,
2019/4/15,8:00:00,16,�É�,0.1,5.3,95.1,5,0.03,13,���k��,3.2,30,,
2019/4/15,9:00:00,14,�k��,0.6,5.6,95.3,1.5,0.08,13,���k��,2.4,35,,
2019/4/15,10:00:00,14,�k��,1.4,5.6,93.8,0,0.09,14,�k��,3.3,36,,
2019/4/15,11:00:00,16,�k,2.1,6.9,92.2,0,0.18,15,�k�k��,4.4,34,,
2019/4/15,12:00:00,15,�k�k��,1.7,6.9,87.5,0,0.18,14,�k��,4.2,18,,
2019/4/15,13:00:00,4,��,0.9,8.3,80.6,0,0.36,15,�k�k��,2.7,5,,
2019/4/15,14:00:00,6,�쓌,2.4,10.1,69.6,0,0.84,7,��쓌,5,58,,
2019/4/15,15:00:00,7,��쓌,3.2,7.6,77.9,0,0.7,5,���쓌,5.4,21,,
2019/4/15,16:00:00,6,�쓌,2.4,4.8,83.8,0,0.39,7,��쓌,4.6,17,,
2019/4/15,17:00:00,11,���쐼,0.4,6.5,84.5,0,0.23,4,��,2.8,8,,
2019/4/15,18:00:00,1,�k�k��,2,4.8,74.6,0,0.08,2,�k��,3.7,32,,
2019/4/15,19:00:00,10,�쐼,2.5,7.8,73.6,0,0,10,�쐼,4.6,25,,
2019/4/15,20:00:00,10,�쐼,2.5,5.4,74.2,0,0,10,�쐼,4.9,2,,
2019/4/15,21:00:00,13,���k��,1.6,3.9,79.4,0,0,15,�k�k��,3.6,13,,
2019/4/15,22:00:00,11,���쐼,0.6,1.5,82.8,0,0,16,�k,2.5,2,,
2019/4/15,23:00:00,16,�k,0.5,1.4,86.9,0,0,1,�k�k��,1.8,49,,
2019/4/15,0:00:00,15,�k�k��,1.2,0.5,89,0,0,3,���k��,2.2,9,,
2019/4/16,1:00:00,15,�k�k��,2.2,4.7,94,0,0,14,�k��,5.2,46,,
2019/4/16,2:00:00,14,�k��,6.4,6.7,71.5,0,0,15,�k�k��,11.4,54,,
2019/4/16,3:00:00,15,�k�k��,5.1,7.4,63,0,0,14,�k��,14.7,15,,
2019/4/16,4:00:00,15,�k�k��,1.7,7.5,57.4,0,0,14,�k��,7.4,9,,
2019/4/16,5:00:00,15,�k�k��,2.5,7.6,55.5,0,0.01,14,�k��,6,21,,
2019/4/16,6:00:00,11,���쐼,1.8,7.8,52.2,0,0.04,13,���k��,6.3,23,,
2019/4/16,7:00:00,14,�k��,0.5,10.2,46.4,0,0.19,14,�k��,5.8,31,,
2019/4/16,8:00:00,15,�k�k��,1.2,13.2,27.7,0,0.56,8,��,3.4,40,,
2019/4/16,9:00:00,15,�k�k��,5.9,14.6,24.7,0,0.74,15,�k�k��,12.3,59,,
2019/4/16,10:00:00,15,�k�k��,7.2,16,23.4,0,0.88,14,�k��,14.7,17,,
2019/4/16,11:00:00,16,�k,7.2,16.9,25.2,0,0.98,16,�k,13.9,26,,
2019/4/16,12:00:00,15,�k�k��,6.3,17.5,26.6,0,1,15,�k�k��,13.3,58,,
2019/4/16,13:00:00,15,�k�k��,6.8,19,21,0,0.96,15,�k�k��,14.2,1,,
2019/4/16,14:00:00,6,�쓌,3,16,24.8,0,0.85,15,�k�k��,11.3,3,,
2019/4/16,15:00:00,8,��,3.2,15.5,28.1,0,0.7,8,��,7.4,23,,
2019/4/16,16:00:00,8,��,4.3,15,27,0,0.52,9,��쐼,6.5,51,,
2019/4/16,17:00:00,6,�쓌,1.8,14.8,28.2,0,0.31,8,��,6.1,5,,
2019/4/16,18:00:00,14,�k��,2.5,14.3,26.9,0,0.1,14,�k��,4.6,57,,
2019/4/16,19:00:00,11,���쐼,1.7,7.6,32,0,0,13,���k��,3.7,24,,
2019/4/16,20:00:00,7,��쓌,0.5,3.3,47.5,0,0,16,�k,2.5,19,,
2019/4/16,21:00:00,12,��,1.6,0.1,61.2,0,0,11,���쐼,2.5,25,,
2019/4/16,22:00:00,14,�k��,1.3,0.9,67.8,0,0,12,��,3.1,32,,
2019/4/16,23:00:00,13,���k��,1.2,-1,72.5,0,0,12,��,3.8,32,,
2019/4/16,0:00:00,13,���k��,2.2,-1.2,78,0,0,12,��,3.9,41,,
2019/4/17,1:00:00,12,��,3.3,-0.1,79.2,0,0,13,���k��,4.9,39,,
2019/4/17,2:00:00,13,���k��,1.6,-0.8,80.2,0,0,13,���k��,4,10,,
2019/4/17,3:00:00,16,�k,1,-1.6,80.1,0,0,11,���쐼,7.9,18,,
2019/4/17,4:00:00,16,�k,0.8,-1.3,83.8,0,0,12,��,2.7,13,,
2019/4/17,5:00:00,13,���k��,1.2,-1.1,85.6,0,0.01,12,��,3.6,28,,
2019/4/17,6:00:00,15,�k�k��,0.8,3,86.3,0,0.1,12,��,3.5,21,,